SCP
2 2 3 4 5 4 3 3 3 3 3 3 3 4 3 3 4 4 3 3 3 3 3 3 3 3 4 4 3 3 3 3 3 3 2 2 2 2 2 3 3 3 3
2 2 3 4 5 4 4 4 4 3 3 3 4 4 4 3 3 3 3 3 3 4 4 3 3 4 5 4 3 3 3 3 3 3 3 2 2 2 2 2 2 2 3
2 2 2 3 4 4 4 4 4 4 4 4 4 4 4 4 3 3 3 3 3 4 3 3 3 4 5 4 3 3 3 3 3 3 3 3 2 2 1 1 1 2 2
2 2 2 2 3 3 4 4 5 5 5 5 5 5 5 4 3 3 3 3 3 3 3 3 3 3 4 4 3 3 3 2 2 3 3 3 3 2 1 1 1 1 1
1 2 2 2 3 3 3 4 5 5 5 5 5 5 4 3 3 3 2 2 2 2 2 2 2 3 3 3 3 3 3 3 3 3 3 2 2 2 1 1 1 1 1
1 1 1 2 2 2 3 4 4 5 4 4 4 4 3 3 3 2 2 2 1 1 2 2 2 2 2 3 3 3 3 3 3 3 3 2 2 1 1 1 1 1 0
1 0 1 1 1 1 2 2 3 4 4 3 3 2 2 2 2 2 1 1 1 1 1 1 1 1 2 2 2 2 3 4 3 3 3 3 2 2 2 2 1 1 0
0 0 0 0 0 0 1 1 2 2 3 2 2 1 1 1 1 1 1 1 1 1 1 1 1 1 1 1 1 1 2 3 3 3 3 3 3 3 3 2 1 1 1
0 0 0 0 0 0 0 0 1 1 1 1 1 1 1 1 0 0 0 0 1 1 1 1 1 0 1 1 1 1 2 3 3 3 3 4 4 3 3 3 2 1 1
0 0 0 0 0 0 0 0 0 0 0 1 1 1 0 0 0 0 0 1 1 1 1 1 0 0 1 1 1 1 2 3 4 4 4 4 4 4 3 3 3 2 2
1 0 0 0 0 0 0 0 0 0 0 0 0 0 0 0 0 0 0 1 1 1 1 0 0 0 1 1 1 2 3 4 5 5 5 4 4 3 3 3 3 3 2
1 1 0 0 0 0 0 0 0 0 0 0 0 0 0 0 0 0 0 0 0 0 0 0 0 0 0 1 2 3 4 5 5 5 5 4 3 3 3 3 2 2 1
1 1 0 0 0 0 0 0 0 0 0 0 0 0 0 0 0 0 0 0 0 0 0 0 0 0 0 1 2 4 5 5 5 4 4 3 2 2 2 1 1 1 0
1 0 0 0 0 0 0 0 0 0 0 0 0 0 0 0 0 0 0 0 0 0 0 0 0 0 0 1 2 4 5 5 4 4 3 2 1 1 1 0 0 0 0
0 0 0 0 0 0 0 0 0 0 0 0 0 0 0 0 0 0 0 0 0 0 0 0 0 0 0 0 1 3 4 4 4 3 2 1 0 0 0 0 0 0 0
0 0 0 0 0 0 0 0 0 0 0 0 0 0 0 0 0 0 0 0 0 0 0 0 0 0 0 0 1 2 3 3 3 2 1 0 0 0 0 0 0 0 0
0 0 0 0 0 0 0 0 0 0 0 0 0 0 0 0 0 0 0 0 0 0 0 0 0 0 0 0 0 1 2 2 1 1 0 0 0 0 0 0 0 0 0
0 0 0 0 0 0 0 0 0 0 0 0 0 0 0 0 0 0 0 0 0 0 0 0 0 0 0 0 0 1 1 1 1 0 0 0 0 0 0 0 0 0 0
0 0 0 0 0 0 0 0 0 0 0 0 0 0 0 0 0 0 0 0 0 0 0 0 0 0 0 0 0 0 0 0 0 0 0 0 0 0 0 0 0 0 0
0 0 0 0 0 0 0 0 0 0 0 0 0 0 0 0 0 0 0 0 0 0 0 0 0 0 0 0 0 0 0 0 0 0 0 0 0 0 0 0 0 0 0
0 0 0 0 0 0 0 0 0 0 0 0 0 0 0 0 0 0 0 0 0 0 0 0 0 0 0 0 0 0 0 0 0 0 0 0 0 0 0 0 0 0 0
0 0 0 0 0 0 0 0 0 0 0 0 0 0 0 0 0 0 0 0 0 0 0 0 0 0 0 0 0 0 0 0 0 0 0 0 0 0 0 0 0 0 0
0 0 0 0 0 0 0 0 0 0 0 0 0 0 0 0 0 0 0 0 0 0 0 0 0 0 0 0 0 0 0 0 0 0 0 0 0 0 0 0 0 0 0
0 0 0 0 0 0 0 0 0 0 0 0 0 0 0 0 0 0 0 0 0 0 0 0 0 0 0 0 0 0 0 0 0 0 0 0 0 0 0 0 0 0 0
0 0 0 0 0 0 0 0 0 0 0 0 0 0 0 0 0 0 0 0 0 0 0 0 0 0 0 0 0 0 0 0 0 0 0 0 0 0 0 0 0 0 0
0 0 0 0 0 0 0 0 0 0 0 0 0 0 0 0 0 0 0 0 0 0 0 0 0 0 0 0 0 0 0 0 0 0 0 0 0 0 0 0 0 0 0
Wind_Speed
7 7 7 7 7 6 5 5 4 4 2 1 1 0 1 1 1 1 2 2 2 2 2 2 2 3 3 4 4 4 5 4 3 3 2 1 1 1 1 1 2 2 3
6 7 7 8 8 8 6 5 5 4 3 2 1 0 0 1 2 2 3 4 3 3 2 2 2 2 3 3 3 3 3 3 4 3 3 3 3 2 1 1 2 2 2
5 6 7 8 8 8 7 5 5 5 4 3 1 1 1 1 1 1 2 4 4 3 3 2 2 2 2 2 3 4 4 4 4 3 3 3 3 3 2 1 2 3 3
5 6 6 7 8 8 7 7 6 6 5 4 3 3 2 2 2 2 2 3 3 4 3 3 2 2 2 2 2 3 3 4 4 3 3 2 1 3 3 2 2 2 2
6 6 6 7 7 7 7 6 6 6 6 5 4 3 3 2 2 2 3 3 3 4 4 4 3 2 2 2 2 2 3 3 4 3 2 2 1 2 3 4 4 2 1
7 6 6 6 6 7 7 7 6 7 7 6 5 5 4 3 3 3 2 2 2 3 5 4 4 3 3 2 2 2 2 2 3 3 2 3 3 3 3 4 5 4 2
7 6 5 5 6 7 7 7 7 7 7 6 6 5 4 4 3 3 3 3 3 3 5 4 4 3 3 3 2 2 1 1 2 2 2 2 2 2 3 4 4 4 3
7 6 6 5 5 6 6 6 7 7 7 6 6 5 5 4 4 4 4 4 3 4 4 4 4 4 4 3 3 2 2 1 0 0 1 1 1 2 3 4 6 5 3
8 7 6 5 5 5 6 6 6 6 6 6 5 5 5 5 5 4 4 4 4 3 4 4 4 4 4 4 3 3 3 2 1 1 1 0 1 1 2 4 5 5 5
8 7 6 6 5 5 5 5 6 6 6 5 5 5 5 5 5 5 6 5 5 5 5 5 5 5 5 4 4 3 4 3 3 2 2 2 1 2 2 2 2 2 4
9 7 6 6 5 5 5 5 5 5 5 5 5 6 5 5 5 5 5 5 5 6 6 6 6 6 6 5 4 5 4 4 4 4 4 4 3 2 2 3 3 3 4
9 8 7 6 5 5 5 5 5 5 5 5 5 5 5 6 6 6 6 6 6 6 6 6 7 7 7 6 6 6 6 6 6 6 5 5 4 5 4 3 4 4 4
9 8 7 6 6 6 5 5 5 5 5 4 5 6 6 6 6 6 6 6 6 6 6 7 7 7 7 7 7 7 7 7 7 7 6 6 6 6 5 5 5 4 5
9 9 7 6 6 5 5 5 5 4 4 5 5 6 6 5 6 6 6 6 6 7 7 7 7 7 7 7 7 7 8 8 8 8 8 7 7 7 6 5 6 6 7
10 9 8 6 6 6 5 4 5 4 4 4 5 5 5 5 5 6 6 6 6 7 6 7 8 8 7 8 8 7 8 8 8 9 10 10 10 10 7 5 6 6 6
10 9 9 7 6 6 5 5 5 4 4 5 5 5 5 5 6 5 6 6 6 6 7 8 8 9 8 9 10 7 8 8 8 9 9 10 10 11 11 11 10 7 5
11 10 9 8 7 6 5 5 5 4 4 4 4 5 5 5 5 6 6 6 6 7 7 8 9 9 9 10 10 9 7 8 8 8 7 8 8 8 9 10 9 10 8
11 10 9 8 7 6 5 5 5 4 4 5 5 5 5 5 5 6 6 5 5 6 7 7 8 8 9 9 9 7 7 9 8 8 8 8 8 8 6 7 8 8 7
10 10 9 9 8 7 6 6 5 4 5 5 5 5 5 5 6 6 6 5 5 6 7 7 8 9 9 10 9 6 6 7 9 9 9 8 8 8 6 5 7 7 6
10 10 9 9 8 7 6 6 6 5 5 5 5 5 5 5 6 6 5 5 5 6 6 8 8 9 9 9 10 8 4 6 6 7 8 11 8 7 6 4 6 7 6
12 11 10 8 8 7 6 6 6 6 5 5 6 6 5 5 6 5 4 4 5 6 7 7 7 8 8 8 10 11 5 5 5 5 6 8 8 8 7 5 6 5 2
12 11 10 8 7 7 7 7 6 6 6 6 6 6 5 5 5 5 4 4 5 6 6 6 6 6 6 8 8 9 9 7 5 5 6 7 6 6 6 5 5 3 4
12 10 10 9 7 6 6 7 7 6 6 6 7 6 6 5 5 5 5 4 4 4 4 4 5 5 5 6 4 4 5 5 4 6 7 4 1 1 4 4 2 4 1
12 10 10 9 8 7 7 7 7 6 6 7 7 6 5 6 6 4 4 4 4 4 4 4 4 4 4 4 3 3 3 4 4 4 5 3 1 1 3 3 1 1 4
11 10 10 10 9 8 7 7 7 6 6 6 6 6 6 6 5 6 6 6 7 7 5 4 4 4 5 7 7 6 5 5 5 2 1 2 2 2 2 2 2 2 2
11 10 10 10 10 9 8 7 7 6 6 6 5 5 5 4 4 5 6 8 6 6 6 6 6 6 6 4 3 3 3 3 4 4 1 2 1 2 2 1 1 1 2
Wind_Direction
79 67 55 49 47 48 46 39 39 40 31 40 41 67 94 61 41 28 13 350 335 303 278 276 261 255 242 236 226 223 207 200 183 179 174 152 118 119 137 161 145 134 135
89 71 58 50 44 39 39 40 33 29 23 26 38 60 70 73 55 32 33 17 357 344 314 298 285 276 253 238 227 218 217 202 191 188 180 183 176 153 126 140 140 131 130
93 76 61 52 46 38 29 30 30 28 24 19 50 94 110 100 77 58 48 28 14 14 349 339 313 297 283 257 234 222 218 209 204 203 193 193 200 159 137 136 117 122 116
102 81 66 54 46 38 34 32 34 33 27 23 33 48 63 61 34 19 49 44 28 18 6 2 346 314 299 291 267 237 231 216 210 202 224 226 178 178 154 139 123 112 120
110 89 70 57 49 41 37 36 41 41 34 30 30 36 49 51 54 47 53 39 33 23 13 7 356 334 314 308 299 272 248 226 220 206 191 188 187 203 175 164 150 126 101
116 97 81 67 53 46 43 40 43 41 36 34 34 41 51 53 58 49 43 38 35 28 20 13 5 351 346 338 315 280 244 248 237 225 206 193 182 182 184 172 160 148 133
126 112 96 78 62 50 43 40 44 43 39 41 39 42 49 59 58 43 43 37 33 31 22 13 12 7 1 351 337 311 276 245 231 227 221 219 224 199 180 157 149 137 125
131 117 102 90 75 59 48 43 44 44 43 42 39 37 40 46 48 41 38 39 30 31 23 20 26 24 14 10 3 1 358 4 238 188 226 212 200 182 166 156 149 142 143
136 121 108 94 81 68 56 49 48 48 46 47 49 47 48 50 50 44 39 42 37 35 35 33 31 28 23 25 25 38 29 29 24 63 142 125 122 148 150 156 161 159 163
136 126 115 103 92 81 70 60 54 51 48 46 46 51 51 52 52 48 45 40 38 40 42 40 39 36 33 38 44 54 45 54 51 47 62 61 86 115 136 160 166 157 149
142 134 123 115 108 97 84 73 64 58 51 52 53 54 53 50 52 53 49 45 46 45 45 44 44 43 40 42 50 56 55 58 62 60 71 75 75 93 106 119 130 134 131
143 138 133 130 123 105 90 79 70 66 60 60 61 58 59 56 54 52 49 49 51 50 49 49 49 46 45 45 50 54 53 56 60 62 68 77 88 90 88 97 106 115 128
145 142 139 135 121 108 100 89 78 69 67 70 71 65 60 60 59 56 53 51 55 55 53 57 57 52 50 51 54 57 58 57 58 60 66 76 86 86 89 92 99 109 120
150 145 140 134 123 115 108 100 89 77 71 68 70 67 61 60 60 59 59 56 56 58 57 56 56 54 51 51 56 62 62 62 61 63 66 68 73 82 90 95 99 107 115
154 148 145 138 130 122 116 108 97 82 75 76 73 68 66 61 60 59 58 58 58 61 63 62 61 58 55 44 43 62 67 66 67 66 68 68 71 66 65 79 93 108 118
154 150 146 144 139 130 126 118 104 96 88 77 73 69 68 64 61 63 65 66 66 67 69 65 63 62 55 36 31 37 70 69 69 70 73 80 79 79 79 74 71 73 94
153 151 150 146 138 134 129 120 110 106 96 84 76 72 74 72 69 72 72 71 73 76 75 73 68 65 55 43 38 32 60 68 64 63 65 72 77 81 89 93 95 82 73
151 150 145 139 135 134 133 125 117 109 100 88 80 75 76 79 79 76 75 73 75 76 76 74 74 74 59 42 38 30 69 71 69 66 66 69 68 60 59 84 89 88 77
141 139 139 138 138 140 141 131 121 111 96 89 84 77 75 80 78 74 74 77 79 78 79 76 74 75 68 40 23 11 77 77 73 68 62 63 68 41 23 84 98 97 97
130 132 136 136 137 137 134 128 120 112 100 94 91 83 79 79 78 77 78 82 86 84 80 74 69 69 66 42 21 1 69 77 83 86 85 69 55 34 15 71 90 95 96
134 136 136 138 138 137 136 131 124 111 104 98 94 84 78 82 80 81 78 81 86 86 82 82 77 69 60 58 36 18 36 57 70 78 79 70 46 38 24 25 67 67 50
136 137 136 133 133 140 144 131 117 110 107 103 99 91 81 78 85 87 84 86 95 102 98 95 91 86 75 56 51 38 32 13 58 63 66 71 51 46 37 47 47 335 286
138 139 135 132 135 140 137 122 118 120 116 109 103 96 87 78 78 87 93 97 92 89 93 95 92 90 92 99 95 69 43 20 42 63 64 63 71 145 103 85 331 284 280
142 142 141 141 138 136 130 126 127 128 123 115 111 109 101 95 84 73 71 73 71 75 80 77 81 89 93 78 79 101 122 146 132 112 128 167 192 128 98 162 194 47 41
140 142 143 137 135 135 135 134 131 132 122 116 113 110 101 92 90 72 45 38 54 34 22 42 62 68 73 52 20 359 24 21 38 347 162 143 133 127 102 92 77 80 102
143 143 142 138 139 140 136 133 134 134 132 130 127 118 111 106 107 113 105 62 54 65 49 26 16 65 66 62 32 24 10 340 317 296 106 92 80 74 74 68 82 88 62